UmKA 1 (RS40S)
1 57172U 23091G   26146.57667664  .00006470  00000-0  29838-3 0  9993
2 57172  97.5066 205.3600 0012741 187.7103 172.3939 15.20524884160724
CubeBel-2 (EU11S)
1 57175U 23091K   26146.58545958  .00012905  00000-0  46624-3 0  9990
2 57175  97.5066 209.6174 0010205 182.4855 177.6335 15.28557131161008
RS-38S
1 57189U 23091Z   26146.57938000  .00016788  00000-0  49226-3 0  9992
2 57189  97.5104 215.6428 0008679 141.7999 218.3860 15.35225127161375
SONATE-2
1 59112U 24043Q   26146.36346097  .00038146  00000-0  52922-3 0  9993
2 59112  97.5508 295.4534 0005920 274.8660  85.1919 15.56938668124495
GRBBeta
1 60237U 24128C   26146.58277334  .00004657  00000-0  32202-3 0  9997
2 60237  61.9905 292.0549 0043663 130.1711 230.3218 15.06437060103013
Curium One
1 60242U 24128H   26146.54962418  .00009277  00000-0  53610-3 0  9992
2 60242  61.9790 282.3910 0043131 126.2742 234.2350 15.12122133103182
ROBUSTA-3A
1 60243U 24128J   26146.56865844  .00009292  00000-0  54877-3 0  9993
2 60243  61.9867 284.6763 0044284 123.9908 236.5406 15.11292495103159
CatSat
1 60246U 24125J   26146.16440046  .00057640  00000-0  81977-3 0  9993
2 60246  97.2115 358.4212 0021103 260.8427  99.0440 15.55929061103964
HYPERVIEW-1G (RS66S)
1 61772U 24199AP  26146.62474734  .00104414  00000-0  85374-3 0  9998
2 61772  97.2925  25.3410 0004360  20.6571 339.4867 15.70222225131281
AO-123
1 61781U 24199AY  26146.59465353  .00007994  00000-0  23465-3 0  9999
2 61781  97.3035  15.4625 0014815  33.2749 326.9423 15.35310679130612
JINJUSat 1B
1 63210U 25052A   26146.21588984  .00018292  00000-0  58063-3 0  9997
2 63210  97.4032  42.9509 0004460 136.5052 223.6542 15.32711342 66739
NUSHSAT 1
1 63211U 25052B   26146.22839971  .00022788  00000-0  67250-3 0  9997
2 63211  97.4010  43.4567 0004238 135.7365 224.4218 15.34983339 66779
TEVEL2-4
1 63213U 25052D   26146.26733952  .00020884  00000-0  64174-3 0  9992
2 63213  97.3933  42.6332 0003275 144.3919 215.7543 15.33723992 66754
TEVEL2-5
1 63214U 25052E   26146.61171091  .00017942  00000-0  55448-3 0  9997
2 63214  97.3932  42.9318 0003253 143.9929 216.1533 15.33573847 66805
TEVEL2-6
1 63215U 25052F   26146.62352098  .00017670  00000-0  54677-3 0  9998
2 63215  97.3935  42.9284 0003333 143.3104 216.8367 15.33536301 66805
TEVEL2-1
1 63217U 25052H   26146.18836924  .00020046  00000-0  62991-3 0  9995
2 63217  97.3908  42.1428 0002817 155.3668 204.7709 15.33021025 66722
TEVEL2-3
1 63218U 25052J   26146.51012067  .00018006  00000-0  56515-3 0  9995
2 63218  97.3910  42.4835 0002911 155.6466 204.4914 15.33080972 66771
TEVEL2-2
1 63219U 25052K   26146.51515679  .00018152  00000-0  57047-3 0  9996
2 63219  97.3909  42.4712 0002862 155.5643 204.5736 15.33037508 66775
TEVEL2-9
1 63237U 25052AD  26146.26897279  .00018269  00000-0  60920-3 0  9990
2 63237  97.3969  41.6467 0005144 200.6326 159.4708 15.31123197 66679
TEVEL2-7
1 63238U 25052AE  26146.24044482  .00018002  00000-0  60549-3 0  9991
2 63238  97.3970  41.5434 0005218 201.5728 158.5294 15.30847555 66662
TEVEL2-8
1 63239U 25052AF  26146.24846027  .00018048  00000-0  60735-3 0  9994
2 63239  97.3972  41.5290 0005209 201.7276 158.3745 15.30829769 66661
SPIRONE
1 66657U 25274H   26146.34650646  .00002479  00000-0  24087-3 0  9999
2 66657  97.7482  75.9518 0013791  87.2963 272.9835 14.93440360 26963
K-HERO
1 66660U 25274L   26146.29025511  .00002339  00000-0  22504-3 0  9991
2 66660  97.7490  76.0412 0015678  91.2730 269.0286 14.93863411 26967
SNUGLITE-III DURI
1 66661U 25274M   26146.34566840  .00002129  00000-0  20508-3 0  9992
2 66661  97.7487  76.1157 0016239  92.1253 268.1827 14.93913339 26972
SAKHACUBE-CHOLBON
1 67290U 25313AU  26146.17428328  .00010971  00000-0  44928-3 0  9990
2 67290  97.3941 221.4911 0010784  78.1362 282.1084 15.24419011 22621
RS95S (QMR-KWT-2)
1 67291U 25313AV  26146.18143581  .00015413  00000-0  60758-3 0  9992
2 67291  97.3939 221.6306 0010283  77.9467 282.2923 15.25619841 22634
Ten-Koh2
1 68261U 25241B   26146.17601773  .00008591  00000-0  36746-3 0  9990
2 68261  51.6625  64.3629 0006633  77.4014 282.7705 15.23588326 11557
JACK-002
1 68417U 26067B   26146.55806294  .00007148  00000-0  34400-3 0  9999
2 68417  97.4551 105.4224 0002727  42.6210 317.5236 15.19076794  8666
DISCO 2
1 68431U 26067R   26146.44244221  .00008953  00000-0  43470-3 0  9991
2 68431  97.4584 105.2987 0004282  80.0999 280.0718 15.18687052  8641
HADES-SA (SpinnyONE)
1 68446U 26067AG  26146.34654558  .00019489  00000-0  95357-3 0  9991
2 68446  97.4387 104.9845 0008813 135.6499 224.5443 15.18203454  8618
PARUS-6U1
1 68456U 26067AS  26146.42676784  .00006538  00000-0  33165-3 0  9996
2 68456  97.4537 105.1310 0007097 127.7010 232.4868 15.17250178  8635
SAL-E
1 68458U 26067AU  26146.42501696  .00008762  00000-0  44134-3 0  9996
2 68458  97.4463 105.0802 0007210 134.8827 225.2994 15.17395193  8639
FSI-SAT 2
1 68792U 26088A   26146.37031779  .00005566  00000-0  37875-3 0  9997
2 68792  97.5034 296.1843 0014717 177.4238 182.7068 15.06619566  5009
OrigamiSat 2
1 68795U 26088D   26145.34278511  .00003364  00000-0  22150-3 0  9997
2 68795  97.5045 295.2583 0016473 153.9491 206.2570 15.08091164  4858
ARICA 2
1 68796U 26088E   26146.40179544  .00004694  00000-0  30642-3 0  9994
2 68796  97.5036 296.2911 0016736 148.6121 211.6110 15.08213703  5012
WASEDA-SAT-ZERO-II
1 68797U 26088F   26146.40004829  .00006621  00000-0  42895-3 0  9993
2 68797  97.5033 296.2932 0016663 148.6011 211.6216 15.08341719  5016
MANGARO-II-Piscus
1 68798U 26088G   26146.39324265  .00003844  00000-0  24883-3 0  9992
2 68798  97.5037 296.3061 0020018 152.1054 208.1252 15.08588737  5015
IO-86
1 40931U          25360.30710720  .00000000  00000-0  12800-3 0    00
2 40931   6.0006 332.5373 0012733 338.8432   8.1437 14.79075515    01
LILIUM-4                
1 71922C 26067AC  26089.50133053 -.00014632  00000+0 -74472-3 0    04
2 71922  97.4497  49.1617 0004341   5.9603 355.7042 15.16896692    16
